Location: Arpaise
(41.0333°N, 14.7333°E)
Time: 01:40:12
(UTC+00:00)

USA 245 - Pass Details

Date: 05 July 2020
Orbit: 270 x 1010 km, 97.9° (Epoch: 10 August)

Event Time Altitude Azimuth Distance (km) Brightness Sun altitude
Exits shadow 19:30:16 12° 121° (ESE) 1,383 4.7 -9.0°
Maximum altitude 19:32:39 26° 66° (ENE) 970 4.4 -9.4°
Drops below altitude 10° 19:35:58 10° 9° (N) 1,847 6.5 -9.8°
Sets 19:38:37 0° 358° (N) 2,902 7.7 -10.2°
